Weather Roundup
Issued by NWS

Home | Current Version | Previous Version | Text Only | Print | Product List | Glossary On
Versions: 1 2 3 4 5 6 7 8 9 10 11 12 13 14 15 16 17 18 19 20 21 22 23 24 25 26 27 28 29 30 31 32 33 34 35 36 37 38 39 40 41 42 43 44 45 46 47 48 49 50
000
NZUS93 KARX 252110
HRRWXR

CURRENT HOURLY OBSERVATIONS ACROSS
MUCH OF THE UPPER MISSISSIPPI VALLEY
NATIONAL WEATHER SERVICE LA CROSSE WI
300 PM CST THU DEC 25 2014


...SOUTHEAST MINNESOTA...


CITY           SKY/WX    TMP DP  RH WIND       PRES   REMARKS
ROCHESTER      MOSUNNY   34  29  82 SE10      29.76R WCI  26
ROCHESTER/MAYO FAIR      38  28  68 SE8       29.76R WCI  32
WINONA         PTSUNNY   41  30  65 S3        29.80R
AUSTIN         PTSUNNY   36  30  80 S3        29.75R
ALBERT LEA     PTSUNNY   36  30  80 SE7       29.73R WCI  30
DODGE CENTER   PTSUNNY   36  30  80 S9        29.75R WCI  29
PRESTON        PTSUNNY   34  30  84 CALM      29.77R
OWATONNA       CLOUDY    37  30  75 S5        29.75R WCI  34
FARIBAULT      CLOUDY    36  30  80 SE3       29.75R
$$

...ELSEWHERE IN MINNESOTA...


CITY           SKY/WX    TMP DP  RH WIND       PRES   REMARKS
MINNEAPOLIS    CLOUDY    35  28  75 SE5       29.76S WCI  31
INTNL FALLS    CLOUDY    30  25  81 NW8       29.73R WCI  22
DULUTH         CLOUDY    32  26  78 W12       29.73R WCI  23
RED WING       CLOUDY    37  30  75 SE3       29.77R
REDWOOD FALLS  CLOUDY    33  29  85 NE5       29.74R FOG     WCI  29
MANKATO        CLOUDY    36  28  75 E3        29.73S
WORTHINGTON    CLOUDY    36 N/A N/A NE13      29.66S WCI  27
FAIRMONT       PTSUNNY   36  28  75 SE6       29.70S WCI  31
$$

...SOUTHWEST WISCONSIN...


CITY           SKY/WX    TMP DP  RH WIND       PRES   REMARKS
LA CROSSE      PTSUNNY   42  30  62 S8        29.80S
PRAIRIE DU CHI PTSUNNY   43  30  61 SE6       29.81S
BOSCOBEL       PTSUNNY   43  31  62 VRB5      29.83R
LONE ROCK      PTSUNNY   45  31  58 S3        29.84S
PLATTEVILLE    PTSUNNY   42  32  69 S13       29.84S
FORT MC COY    CLOUDY    38  30  73 S5        29.82S WCI  34
CAMP DOUGLAS   CLOUDY    37  35  93 S5        29.82R WCI  33
VIROQUA        FAIR      38  33  81 S9        29.79R WCI  31
WIS DELLS      PTSUNNY   38  31  73 S10G16    29.83R WCI  32
$$

...ELSEWHERE IN WISCONSIN...


CITY           SKY/WX    TMP DP  RH WIND       PRES   REMARKS
MILWAUKEE      PTSUNNY   41  30  65 SW13      29.92R
MADISON        PTSUNNY   41  31  67 S10       29.86S
GREEN BAY      MOCLDY    36  30  79 SW8       29.85R WCI  30
EAU CLAIRE     CLOUDY    34  28  79 SE3       29.79R
BLACK RVR FLS  MOCLDY    37  29  71 S6        29.81R WCI  33
MEDFORD        LGT SNOW  30  28  92 S7        29.79R WCI  23
WAUSAU         CLOUDY    32  28  85 SW8       29.80R WCI  25
WIS RAPIDS     CLOUDY    34  27  75 S6        29.83S WCI  29
MARSHFIELD     CLOUDY    34  28  79 S6        29.80R WCI  29
RICE LAKE      LGT SNOW  32  29  90 S5        29.79R WCI  27
$$

...NORTHEAST IOWA...


CITY           SKY/WX    TMP DP  RH WIND       PRES   REMARKS
DECORAH        CLOUDY    41  32  70 S7        29.77R
MASON CITY     CLOUDY    37  31  78 S7        29.75R WCI  32
CHARLES CITY   PTSUNNY   41  34  75 S12       29.76R
OELWEIN        PTSUNNY   43  34  70 S16       29.78S
$$

...ELSEWHERE IN IOWA...


CITY           SKY/WX    TMP DP  RH WIND       PRES   REMARKS
DES MOINES     MOSUNNY   50  32  50 S16       29.71F
IOWA CITY      MOSUNNY   48  32  53 S15G21    29.84S
FORT DODGE     PTSUNNY   41  30  65 S7        29.70S
$$

...NORTHERN ILLINOIS...


CITY           SKY/WX    TMP DP  RH WIND       PRES   REMARKS
CHICAGO-OHARE  MOSUNNY   42  31  64 S12       29.96R
CHICAGO-MIDWAY PTSUNNY   44  32  62 S16G22    29.98S
MOLINE         PTSUNNY   49  30  48 S13       29.86S
ROCKFORD       PTSUNNY   44  32  62 S14       29.93S
PEORIA         SUNNY     49  34  56 S15       29.94R
$$

NOTE: "FAIR" INDICATES FEW OR NO CLOUDS BELOW 12,000 FEET WITH NO
SIGNIFICANT WEATHER AND/OR OBSTRUCTIONS TO VISIBILITY. WIND
SPEEDS ARE IN MILES-PER-HOUR.



USA.gov is the U.S. government's official web portal to all federal, state and local government web resources and services.